Weather History for Millville, NJ

Change the Weather History Date:

Sunday, August 4, 2013

  Actual Average Record
Temperature  
Mean Temperature 70 °F -  
Max Temperature 81 °F 86 °F 97 °F (1975)
Min Temperature 60 °F 68 °F 52 °F (1964)
Cooling Degree Days 4    
Growing Degree Days 20 (Base 50)    
Moisture  
Dew Point 61 °F    
Average Humidity 84    
Maximum Humidity 100    
Minimum Humidity 44    
Precipitation  
Precipitation 0.01 in - - ()
Sea Level Pressure  
Sea Level Pressure 29.90 in    
Wind  
Wind Speed 3 mph (NW)    
Max Wind Speed 15 mph    
Max Gust Speed 21 mph    
Visibility 5 miles    
Events      
Averages and records for this station are not official NWS values.
T = Trace of Precipitation, MM = Missing Value Source: NWS Daily Summary

Daily Weather History Graph

Daily Weather History Graph

Search for Another Location

Airport:

Trip Planner

Search our weather history database for the weather conditions in past years. The results will help you decide how hot, cold, wet, or windy it might be!

Date:

Astronomy

Aug. 04, 2013 Rise Set
Actual Time 6:03 AM EDT 8:09 PM EDT
Civil Twilight 5:33 AM EDT 8:38 PM EDT
Nautical Twilight 4:57 AM EDT 9:14 PM EDT
Astronomical Twilight 4:17 AM EDT 9:54 PM EDT
Moon 4:02 AM EDT (8/4) 6:30 PM EDT (8/4)
Length of Visible Light 15h 05m
Length of Day
14h 05m
Waning Crescent, 5% of the Moon is Illuminated
Aug 4
Waning Crescent
Aug 6
New
Aug 14
First Quarter
Aug 20
Full
Aug 28
Last Quarter

Hourly Weather History & Observations

Time (EDT) Temp. Dew Point Humidity Pressure Visibility Wind Dir Wind Speed Gust Speed Precip Events Conditions
12:54 AM 64.0 °F 63.0 °F 96% 29.90 in 5.0 mi West 4.6 mph - 0.00 in   Clear
1:54 AM 63.0 °F 63.0 °F 100% 29.88 in 3.0 mi Calm Calm - N/A   Clear
2:12 AM 62.6 °F 62.6 °F 100% 29.89 in 2.5 mi Calm Calm - N/A   Clear
2:30 AM 64.4 °F 64.4 °F 100% 29.89 in 3.0 mi Calm Calm - N/A   Clear
2:45 AM 62.6 °F 62.6 °F 100% 29.89 in 2.5 mi Calm Calm - N/A   Clear
2:54 AM 62.1 °F 62.1 °F 100% 29.89 in 3.0 mi West 3.5 mph - N/A   Partly Cloudy
3:37 AM 62.6 °F 62.6 °F 100% 29.88 in 1.8 mi Calm Calm - N/A   Partly Cloudy
3:50 AM 62.6 °F 62.6 °F 100% 29.88 in 3.0 mi Calm Calm - N/A   Clear
3:54 AM 62.1 °F 62.1 °F 100% 29.87 in 3.0 mi Calm Calm - N/A   Clear
4:01 AM 62.6 °F 62.6 °F 100% 29.88 in 2.0 mi Calm Calm - N/A   Clear
4:12 AM 62.6 °F 62.6 °F 100% 29.87 in 0.8 mi Calm Calm - N/A   Clear
4:20 AM 62.6 °F 62.6 °F 100% 29.88 in 1.0 mi Calm Calm - N/A   Mist
4:31 AM 62.6 °F 62.6 °F 100% 29.88 in 0.8 mi Calm Calm - N/A   Mist
4:34 AM 62.6 °F 60.8 °F 94% 29.88 in 1.2 mi Calm Calm - N/A   Partly Cloudy
4:43 AM 60.8 °F 60.8 °F 100% 29.88 in 2.5 mi West 3.5 mph - N/A   Partly Cloudy
4:54 AM 63.0 °F 63.0 °F 100% 29.87 in 2.5 mi Calm Calm - N/A   Clear
5:29 AM 60.8 °F 60.8 °F 100% 29.88 in 4.0 mi Calm Calm - N/A   Clear
5:45 AM 60.8 °F 60.8 °F 100% 29.89 in 3.0 mi Calm Calm - N/A   Scattered Clouds
5:49 AM 60.8 °F 60.8 °F 100% 29.89 in 2.5 mi Calm Calm - N/A   Mostly Cloudy
5:54 AM 61.0 °F 61.0 °F 100% 29.89 in 2.0 mi Calm Calm - N/A   Mostly Cloudy
6:12 AM 62.6 °F 60.8 °F 94% 29.89 in 1.5 mi Calm Calm - N/A   Mostly Cloudy
6:24 AM 62.6 °F 60.8 °F 94% 29.89 in 3.0 mi Calm Calm - 0.01 in   Mostly Cloudy
6:41 AM 62.6 °F 60.8 °F 94% 29.90 in 2.0 mi West 3.5 mph - 0.01 in   Mostly Cloudy
6:54 AM 64.0 °F 63.0 °F 96% 29.90 in 2.5 mi WNW 4.6 mph - 0.01 in   Scattered Clouds
7:05 AM 64.4 °F 64.4 °F 100% 29.90 in 3.0 mi NW 5.8 mph - N/A   Scattered Clouds
7:54 AM 68.0 °F 64.9 °F 90% 29.91 in 6.0 mi NNW 6.9 mph - N/A   Partly Cloudy
8:54 AM 72.0 °F 64.0 °F 76% 29.92 in 10.0 mi NNW 8.1 mph - N/A   Clear
9:54 AM 73.9 °F 61.0 °F 64% 29.92 in 10.0 mi NNW 13.8 mph - N/A   Clear
10:54 AM 75.9 °F 61.0 °F 60% 29.93 in 10.0 mi North 8.1 mph - N/A   Clear
11:54 AM 78.1 °F 60.1 °F 54% 29.92 in 10.0 mi North 6.9 mph - N/A   Clear
12:54 PM 79.0 °F 57.9 °F 48% 29.91 in 10.0 mi NW 9.2 mph 19.6 mph N/A   Partly Cloudy
1:54 PM 79.0 °F 55.0 °F 44% 29.91 in 10.0 mi NW 13.8 mph 20.7 mph N/A   Clear
2:54 PM 79.0 °F 57.0 °F 47% 29.90 in 10.0 mi WNW 15.0 mph 19.6 mph N/A   Scattered Clouds
3:54 PM 79.0 °F 55.9 °F 45% 29.91 in 10.0 mi NW 15.0 mph 20.7 mph N/A   Partly Cloudy
4:54 PM 79.0 °F 55.9 °F 45% 29.91 in 10.0 mi NW 12.7 mph - N/A   Clear
5:54 PM 78.1 °F 55.0 °F 45% 29.92 in 10.0 mi NW 9.2 mph - N/A   Clear
6:54 PM 75.9 °F 55.9 °F 50% 29.93 in 10.0 mi NNW 8.1 mph - N/A   Clear
7:54 PM 71.1 °F 57.9 °F 63% 29.94 in 10.0 mi WNW 5.8 mph - N/A   Clear
8:54 PM 64.9 °F 59.0 °F 81% 29.96 in 10.0 mi West 4.6 mph - N/A   Clear
9:54 PM 62.1 °F 59.0 °F 90% 29.98 in 10.0 mi West 3.5 mph - N/A   Clear
10:54 PM 63.0 °F 57.9 °F 84% 29.99 in 10.0 mi West 3.5 mph - N/A   Clear
11:54 PM 61.0 °F 57.9 °F 90% 29.99 in 10.0 mi WNW 4.6 mph - N/A   Clear